Home   Weather   Kehl   Past weeks

Flag for Germany Past Weather in Kehl, Baden-Württemberg, Germany — Yesterday and Last 2 Weeks

Now
43 °F

Sunny.


Feels Like: 41 °F
Forecast: 31 / 49 °F
Wind: 3 mph from West

Location: Strasbourg Airport

Current Time: Dec 9, 2016 at 4:47:50 pm

Latest Report: Dec 9, 2016 at 4:00 pm


Visibility: 10 mi

Pressure: 30.48 "Hg

Humidity: 76%

Dew Point: 36 °F

Location of KehlLocation

Past Weather in Kehl — Graph

°F

Kehl Temperature Yesterday

Maximum temperature yesterday: 32 °F (at 1:30 pm)
Minimum temperature yesterday: 25 °F (at 11:30 pm)
Average temperature yesterday: 30 °F

High & Low Weather Summary for the Past Weeks

 TemperatureHumidityPressure
High54 °F (Nov 25, 1:00 pm)100% (Nov 27, 1:30 am)30.60 "Hg (Nov 27, 1:30 am)
Low19 °F (Nov 30, 8:00 am)52% (Nov 29, 2:00 pm)29.89 "Hg (Nov 25, 6:00 am)
Average35 °F87%30.31 "Hg
* Reported Nov 24 3:00 pm — Dec 9 3:30 pm, Kehl, Weather by CustomWeather, © 2016

Note: Actual official high and low records may vary slightly from our data, if they occured in-between our weather recording intervals... More about our weather records

Advertising

Kehl Weather History for the Previous 24 Hours

Scroll right to see more
 ConditionsComfort  
Time TempWeatherWind HumidityBarometerVisibility
3:30 pm
Fri, Dec 9
46 °FSunny.2 mph66%30.48 "Hg10 mi
3:00 pm45 °FSunny.2 mph71%30.48 "Hg10 mi
2:30 pm43 °FSunny.2 mph76%30.48 "Hg10 mi
2:00 pm43 °FSunny.3 mph71%30.48 "Hg10 mi
1:30 pm43 °FPassing clouds.3 mph76%30.48 "HgN/A
1:00 pm43 °FSunny.5 mph71%30.48 "Hg10 mi
12:30 pm41 °FSunny.5 mph76%30.48 "Hg10 mi
12:00 pm39 °FSunny.5 mph87%30.51 "Hg10 mi
11:30 am37 °FPassing clouds.3 mph87%30.51 "HgN/A
11:00 am36 °FSunny.7 mph87%30.51 "Hg10 mi
10:30 am34 °FSunny.3 mph93%30.51 "Hg10 mi
10:00 am32 °FClear.No wind100%30.51 "Hg6 mi
9:30 am32 °FClear.3 mph93%30.51 "Hg6 mi
9:00 am30 °FClear.5 mph100%30.51 "Hg6 mi
8:30 am28 °FClear.2 mph100%30.48 "Hg4 mi
8:00 am27 °FClear.2 mph100%30.48 "Hg4 mi
7:30 am28 °FClear.2 mph93%30.48 "Hg4 mi
7:00 am27 °FClear.1 mph93%30.48 "Hg4 mi
6:30 am27 °FClear.3 mph100%30.48 "Hg4 mi
5:30 am27 °FClear.3 mph93%30.48 "Hg4 mi
5:00 am28 °FClear.5 mph93%30.48 "Hg4 mi
4:30 am27 °FClear.6 mph93%30.48 "Hg6 mi
4:00 am28 °FClear.7 mph93%30.48 "Hg5 mi
3:30 am27 °FIce fog.3 mph100%30.48 "Hg3 mi
3:00 am27 °FIce fog.3 mph100%30.51 "Hg3 mi
2:30 am27 °FIce fog.5 mph100%30.48 "Hg3 mi
2:00 am25 °FIce fog.5 mph100%30.48 "Hg2 mi
1:30 am27 °FIce fog.2 mph93%30.48 "Hg2 mi
1:00 am25 °FIce fog.2 mph93%30.48 "Hg2 mi
12:30 am27 °FIce fog.2 mph93%30.48 "Hg3 mi
12:00 am25 °FIce fog.3 mph93%30.51 "Hg3 mi
11:30 pm
Thu, Dec 8
25 °FIce fog.No wind93%30.51 "Hg2 mi
11:00 pm28 °FIce fog.2 mph93%30.51 "Hg2 mi
10:30 pm27 °FIce fog.1 mph100%30.48 "Hg2 mi
10:00 pm27 °FIce fog.2 mph100%30.48 "Hg2 mi
9:30 pm28 °FIce fog.5 mph93%30.51 "Hg2 mi
9:00 pm28 °FIce fog.2 mph93%30.48 "Hg2 mi
8:30 pm28 °FIce fog.3 mph100%30.48 "Hg3 mi
8:00 pm28 °FIce fog.3 mph93%30.48 "Hg3 mi
7:30 pm28 °FIce fog.5 mph93%30.48 "Hg3 mi
7:00 pm30 °FIce fog.3 mph93%30.48 "Hg3 mi
6:30 pm30 °FIce fog.3 mph93%30.48 "Hg2 mi
6:00 pm30 °FIce fog.2 mph100%30.48 "Hg3 mi
5:30 pm32 °FIce fog.3 mph93%30.51 "Hg3 mi
5:00 pm30 °FIce fog.3 mph100%30.51 "Hg3 mi
4:30 pm32 °FIce fog.1 mph93%30.51 "Hg2 mi
4:00 pm32 °FIce fog.1 mph93%30.51 "Hg2 mi
Weather by CustomWeather, © 2016

See weather overviewHow to use our weather pages